Year,Month,Day,Hour,Minute,Value (Times are PST for temperature in C)
2018,08,10,00,00,22.30
2018,08,10,00,01,22.30
2018,08,10,00,02,22.30
2018,08,10,00,03,22.30
2018,08,10,00,04,22.30
2018,08,10,00,05,22.30
2018,08,10,00,06,22.30
2018,08,10,00,07,22.30
2018,08,10,00,08,22.30
2018,08,10,00,09,22.30
2018,08,10,00,10,22.30
2018,08,10,00,11,22.30
2018,08,10,00,12,22.30
2018,08,10,00,13,22.30
2018,08,10,00,14,22.30
2018,08,10,00,15,22.30
2018,08,10,00,16,22.30
2018,08,10,00,17,22.30
2018,08,10,00,18,22.30
2018,08,10,00,19,22.30
2018,08,10,00,20,22.30
2018,08,10,00,21,22.30
2018,08,10,00,22,22.30
2018,08,10,00,23,22.20
2018,08,10,00,24,22.20
2018,08,10,00,25,22.20
2018,08,10,00,26,22.20
2018,08,10,00,27,22.20
2018,08,10,00,28,22.20
2018,08,10,00,29,22.20
2018,08,10,00,30,22.20
2018,08,10,00,31,22.10
2018,08,10,00,32,22.10
2018,08,10,00,33,22.10
2018,08,10,00,34,22.00
2018,08,10,00,35,22.00
2018,08,10,00,36,22.00
2018,08,10,00,37,21.90
2018,08,10,00,38,21.90
2018,08,10,00,39,21.90
2018,08,10,00,40,21.90
2018,08,10,00,41,21.90
2018,08,10,00,42,21.90
2018,08,10,00,43,21.90
2018,08,10,00,44,21.90
2018,08,10,00,45,21.80
2018,08,10,00,46,21.80
2018,08,10,00,47,21.80
2018,08,10,00,48,21.80
2018,08,10,00,49,21.70
2018,08,10,00,50,21.70
2018,08,10,00,51,21.70
2018,08,10,00,52,21.60
2018,08,10,00,53,21.60
2018,08,10,00,54,21.60
2018,08,10,00,55,21.60
2018,08,10,00,56,21.60
2018,08,10,00,57,21.60
2018,08,10,00,58,21.60
2018,08,10,00,59,21.60
2018,08,10,01,00,21.60
2018,08,10,01,01,21.50
2018,08,10,01,02,21.50
2018,08,10,01,03,21.50
2018,08,10,01,04,21.50
2018,08,10,01,05,21.50
2018,08,10,01,06,21.40
2018,08,10,01,07,21.40
2018,08,10,01,08,21.40
2018,08,10,01,09,21.40
2018,08,10,01,10,21.40
2018,08,10,01,11,21.40
2018,08,10,01,12,21.40
2018,08,10,01,13,21.40
2018,08,10,01,14,21.40
2018,08,10,01,15,21.40
2018,08,10,01,16,21.40
2018,08,10,01,17,21.40
2018,08,10,01,18,21.40
2018,08,10,01,19,21.40
2018,08,10,01,20,21.40
2018,08,10,01,21,21.40
2018,08,10,01,22,21.40
2018,08,10,01,23,21.40
2018,08,10,01,24,21.40
2018,08,10,01,25,21.30
2018,08,10,01,26,21.30
2018,08,10,01,27,21.30
2018,08,10,01,28,21.30
2018,08,10,01,29,21.30
2018,08,10,01,30,21.30
2018,08,10,01,31,21.30
2018,08,10,01,32,21.30
2018,08,10,01,33,21.30
2018,08,10,01,34,21.30
2018,08,10,01,35,21.30
2018,08,10,01,36,21.20
2018,08,10,01,37,21.20
2018,08,10,01,38,21.20
2018,08,10,01,39,21.20
2018,08,10,01,40,21.20
2018,08,10,01,41,21.20
2018,08,10,01,42,21.20
2018,08,10,01,43,21.20
2018,08,10,01,44,21.10
2018,08,10,01,45,21.10
2018,08,10,01,46,21.10
2018,08,10,01,47,21.10
2018,08,10,01,48,21.10
2018,08,10,01,49,21.10
2018,08,10,01,50,21.10
2018,08,10,01,51,21.10
2018,08,10,01,52,21.10
2018,08,10,01,53,21.00
2018,08,10,01,54,21.00
2018,08,10,01,55,21.00
2018,08,10,01,56,21.00
2018,08,10,01,57,20.90
2018,08,10,01,58,20.90
2018,08,10,01,59,20.90
2018,08,10,02,00,20.90
2018,08,10,02,01,20.90
2018,08,10,02,02,20.90
2018,08,10,02,03,20.90
2018,08,10,02,04,20.90
2018,08,10,02,05,20.80
2018,08,10,02,06,20.80
2018,08,10,02,07,20.80
2018,08,10,02,08,20.80
2018,08,10,02,09,20.80
2018,08,10,02,10,20.80
2018,08,10,02,11,20.80
2018,08,10,02,12,20.80
2018,08,10,02,13,20.80
2018,08,10,02,14,20.80
2018,08,10,02,15,20.80
2018,08,10,02,16,20.80
2018,08,10,02,17,20.80
2018,08,10,02,18,20.80
2018,08,10,02,19,20.80
2018,08,10,02,20,20.70
2018,08,10,02,21,20.70
2018,08,10,02,22,20.70
2018,08,10,02,23,20.70
2018,08,10,02,24,20.70
2018,08,10,02,25,20.70
2018,08,10,02,26,20.70
2018,08,10,02,27,20.70
2018,08,10,02,28,20.70
2018,08,10,02,29,20.70
2018,08,10,02,30,20.60
2018,08,10,02,31,20.60
2018,08,10,02,32,20.60
2018,08,10,02,33,20.60
2018,08,10,02,34,20.60
2018,08,10,02,35,20.60
2018,08,10,02,36,20.60
2018,08,10,02,37,20.60
2018,08,10,02,38,20.50
2018,08,10,02,39,20.50
2018,08,10,02,40,20.50
2018,08,10,02,41,20.50
2018,08,10,02,42,20.40
2018,08,10,02,43,20.40
2018,08,10,02,44,20.40
2018,08,10,02,45,20.40
2018,08,10,02,46,20.40
2018,08,10,02,47,20.40
2018,08,10,02,48,20.40
2018,08,10,02,49,20.30
2018,08,10,02,50,20.30
2018,08,10,02,51,20.30
2018,08,10,02,52,20.30
2018,08,10,02,53,20.30
2018,08,10,02,54,20.30
2018,08,10,02,55,20.30
2018,08,10,02,56,20.20
2018,08,10,02,57,20.20
2018,08,10,02,58,20.20
2018,08,10,02,59,20.20
2018,08,10,03,00,20.20
2018,08,10,03,01,20.20
2018,08,10,03,02,20.10
2018,08,10,03,03,20.10
2018,08,10,03,04,20.10
2018,08,10,03,05,20.10
2018,08,10,03,06,20.10
2018,08,10,03,07,20.10
2018,08,10,03,08,20.10
2018,08,10,03,09,20.00
2018,08,10,03,10,20.00
2018,08,10,03,11,20.00
2018,08,10,03,12,20.00
2018,08,10,03,13,19.90
2018,08,10,03,14,19.90
2018,08,10,03,15,19.90
2018,08,10,03,16,19.90
2018,08,10,03,17,19.90
2018,08,10,03,18,19.90
2018,08,10,03,19,19.80
2018,08,10,03,20,19.80
2018,08,10,03,21,19.80
2018,08,10,03,22,19.80
2018,08,10,03,23,19.80
2018,08,10,03,24,19.80
2018,08,10,03,25,19.80
2018,08,10,03,26,19.80
2018,08,10,03,27,19.80
2018,08,10,03,28,19.80
2018,08,10,03,29,19.80
2018,08,10,03,30,19.80
2018,08,10,03,31,19.80
2018,08,10,03,32,19.80
2018,08,10,03,33,19.80
2018,08,10,03,34,19.80
2018,08,10,03,35,19.80
2018,08,10,03,36,19.70
2018,08,10,03,37,19.70
2018,08,10,03,38,19.70
2018,08,10,03,39,19.70
2018,08,10,03,40,19.70
2018,08,10,03,41,19.70
2018,08,10,03,42,19.70
2018,08,10,03,43,19.70
2018,08,10,03,44,19.70
2018,08,10,03,45,19.70
2018,08,10,03,46,19.60
2018,08,10,03,47,19.60
2018,08,10,03,48,19.60
2018,08,10,03,49,19.60
2018,08,10,03,50,19.60
2018,08,10,03,51,19.60
2018,08,10,03,52,19.60
2018,08,10,03,53,19.60
2018,08,10,03,54,19.60
2018,08,10,03,55,19.60
2018,08,10,03,56,19.60
2018,08,10,03,57,19.60
2018,08,10,03,58,19.60
2018,08,10,03,59,19.60
2018,08,10,04,00,19.60
2018,08,10,04,01,19.60
2018,08,10,04,02,19.60
2018,08,10,04,03,19.60
2018,08,10,04,04,19.60
2018,08,10,04,05,19.60
2018,08,10,04,06,19.60
2018,08,10,04,07,19.60
2018,08,10,04,08,19.60
2018,08,10,04,09,19.60
2018,08,10,04,10,19.60
2018,08,10,04,11,19.60
2018,08,10,04,12,19.60
2018,08,10,04,13,19.60
2018,08,10,04,14,19.50
2018,08,10,04,15,19.50
2018,08,10,04,16,19.50
2018,08,10,04,17,19.50
2018,08,10,04,18,19.50
2018,08,10,04,19,19.50
2018,08,10,04,20,19.50
2018,08,10,04,21,19.40
2018,08,10,04,22,19.40
2018,08,10,04,23,19.40
2018,08,10,04,24,19.40
2018,08,10,04,25,19.40
2018,08,10,04,26,19.40
2018,08,10,04,27,19.40
2018,08,10,04,28,19.40
2018,08,10,04,29,19.40
2018,08,10,04,30,19.40
2018,08,10,04,31,19.40
2018,08,10,04,32,19.40
2018,08,10,04,33,19.40
2018,08,10,04,34,19.40
2018,08,10,04,35,19.40
2018,08,10,04,36,19.30
2018,08,10,04,37,19.30
2018,08,10,04,38,19.30
2018,08,10,04,39,19.30
2018,08,10,04,40,19.30
2018,08,10,04,41,19.30
2018,08,10,04,42,19.30
2018,08,10,04,43,19.30
2018,08,10,04,44,19.30
2018,08,10,04,45,19.30
2018,08,10,04,46,19.30
2018,08,10,04,47,19.30
2018,08,10,04,48,19.30
2018,08,10,04,49,19.30
2018,08,10,04,50,19.20
2018,08,10,04,51,19.20
2018,08,10,04,52,19.20
2018,08,10,04,53,19.20
2018,08,10,04,54,19.20
2018,08,10,04,55,19.20
2018,08,10,04,56,19.20
2018,08,10,04,57,19.20
2018,08,10,04,58,19.20
2018,08,10,04,59,19.20
2018,08,10,05,00,19.20
2018,08,10,05,01,19.20
2018,08,10,05,02,19.20
2018,08,10,05,03,19.10
2018,08,10,05,04,19.10
2018,08,10,05,05,19.10
2018,08,10,05,06,19.10
2018,08,10,05,07,19.10
2018,08,10,05,08,19.10
2018,08,10,05,09,19.10
2018,08,10,05,10,19.10
2018,08,10,05,11,19.10
2018,08,10,05,12,19.00
2018,08,10,05,13,19.00
2018,08,10,05,14,19.00
2018,08,10,05,15,19.00
2018,08,10,05,16,19.00
2018,08,10,05,17,19.00
2018,08,10,05,18,18.90
2018,08,10,05,19,18.90
2018,08,10,05,20,18.90
2018,08,10,05,21,18.90
2018,08,10,05,22,18.90
2018,08,10,05,23,18.90
2018,08,10,05,24,18.90
2018,08,10,05,25,18.90
2018,08,10,05,26,18.90
2018,08,10,05,27,18.90
2018,08,10,05,28,18.90
2018,08,10,05,29,18.80
2018,08,10,05,30,18.80
2018,08,10,05,31,18.80
2018,08,10,05,32,18.80
2018,08,10,05,33,18.80
2018,08,10,05,34,18.80
2018,08,10,05,35,18.80
2018,08,10,05,36,18.80
2018,08,10,05,37,18.80
2018,08,10,05,38,18.70
2018,08,10,05,39,18.70
2018,08,10,05,40,18.70
2018,08,10,05,41,18.70
2018,08,10,05,42,18.70
2018,08,10,05,43,18.70
2018,08,10,05,44,18.70
2018,08,10,05,45,18.70
2018,08,10,05,46,18.70
2018,08,10,05,47,18.70
2018,08,10,05,48,18.70
2018,08,10,05,49,18.70
2018,08,10,05,50,18.70
2018,08,10,05,51,18.70
2018,08,10,05,52,18.70
2018,08,10,05,53,18.60
2018,08,10,05,54,18.60
2018,08,10,05,55,18.60
2018,08,10,05,56,18.60
2018,08,10,05,57,18.60
2018,08,10,05,58,18.60
2018,08,10,05,59,18.60
2018,08,10,06,00,18.60
2018,08,10,06,01,18.60
2018,08,10,06,02,18.60
2018,08,10,06,03,18.60
2018,08,10,06,04,18.60
2018,08,10,06,05,18.60
2018,08,10,06,06,18.60
2018,08,10,06,07,18.60
2018,08,10,06,08,18.60
2018,08,10,06,09,18.60
2018,08,10,06,10,18.60
2018,08,10,06,11,18.60
2018,08,10,06,12,18.60
2018,08,10,06,13,18.50
2018,08,10,06,14,18.50
2018,08,10,06,15,18.50
2018,08,10,06,16,18.50
2018,08,10,06,17,18.50
2018,08,10,06,18,18.40
2018,08,10,06,19,18.40
2018,08,10,06,20,18.40
2018,08,10,06,21,18.40
2018,08,10,06,22,18.40
2018,08,10,06,23,18.40
2018,08,10,06,24,18.40
2018,08,10,06,25,18.40
2018,08,10,06,26,18.40
2018,08,10,06,27,18.40
2018,08,10,06,28,18.30
2018,08,10,06,29,18.30
2018,08,10,06,30,18.30
2018,08,10,06,31,18.30
2018,08,10,06,32,18.30
2018,08,10,06,33,18.30
2018,08,10,06,34,18.30
2018,08,10,06,35,18.30
2018,08,10,06,36,18.30
2018,08,10,06,37,18.30
2018,08,10,06,38,18.30
2018,08,10,06,39,18.30
2018,08,10,06,40,18.30
2018,08,10,06,41,18.30
2018,08,10,06,42,18.30
2018,08,10,06,43,18.30
2018,08,10,06,44,18.30
2018,08,10,06,45,18.30
2018,08,10,06,46,18.30
2018,08,10,06,47,18.30
2018,08,10,06,48,18.30
2018,08,10,06,49,18.30
2018,08,10,06,50,18.30
2018,08,10,06,51,18.30
2018,08,10,06,52,18.30
2018,08,10,06,53,18.30
2018,08,10,06,54,18.30
2018,08,10,06,55,18.30
2018,08,10,06,56,18.30
2018,08,10,06,57,18.30
2018,08,10,06,58,18.30
2018,08,10,06,59,18.30
2018,08,10,07,00,18.30
2018,08,10,07,01,18.30
2018,08,10,07,02,18.30
2018,08,10,07,03,18.40
2018,08,10,07,04,18.40
2018,08,10,07,05,18.40
2018,08,10,07,06,18.30
2018,08,10,07,07,18.40
2018,08,10,07,08,18.30
2018,08,10,07,09,18.30
2018,08,10,07,10,18.40
2018,08,10,07,11,18.40
2018,08,10,07,12,18.40
2018,08,10,07,13,18.40
2018,08,10,07,14,18.40
2018,08,10,07,15,18.40
2018,08,10,07,16,18.40
2018,08,10,07,17,18.40
2018,08,10,07,18,18.40
2018,08,10,07,19,18.40
2018,08,10,07,20,18.40
2018,08,10,07,21,18.40
2018,08,10,07,22,18.40
2018,08,10,07,23,18.40
2018,08,10,07,24,18.40
2018,08,10,07,25,18.40
2018,08,10,07,26,18.40
2018,08,10,07,27,18.40
2018,08,10,07,28,18.40
2018,08,10,07,29,18.50
2018,08,10,07,30,18.50
2018,08,10,07,31,18.50
2018,08,10,07,32,18.60
2018,08,10,07,33,18.60
2018,08,10,07,34,18.60
2018,08,10,07,35,18.60
2018,08,10,07,36,18.60
2018,08,10,07,37,18.70
2018,08,10,07,38,18.70
2018,08,10,07,39,18.70
2018,08,10,07,40,18.70
2018,08,10,07,41,18.80
2018,08,10,07,42,18.80
2018,08,10,07,43,18.80
2018,08,10,07,44,18.80
2018,08,10,07,45,18.80
2018,08,10,07,46,18.80
2018,08,10,07,47,18.90
2018,08,10,07,48,18.90
2018,08,10,07,49,18.90
2018,08,10,07,50,18.90
2018,08,10,07,51,18.90
2018,08,10,07,52,18.90
2018,08,10,07,53,18.90
2018,08,10,07,54,18.90
2018,08,10,07,55,19.00
2018,08,10,07,56,19.00
2018,08,10,07,57,19.00
2018,08,10,07,58,19.00
2018,08,10,07,59,19.00
2018,08,10,08,00,19.00
2018,08,10,08,01,19.00
2018,08,10,08,02,19.00
2018,08,10,08,03,19.10
2018,08,10,08,04,19.00
2018,08,10,08,05,19.10
2018,08,10,08,06,19.10
2018,08,10,08,07,19.10
2018,08,10,08,08,19.10
2018,08,10,08,09,19.10
2018,08,10,08,10,19.20
2018,08,10,08,11,19.20
2018,08,10,08,12,19.20
2018,08,10,08,13,19.20
2018,08,10,08,14,19.30
2018,08,10,08,15,19.30
2018,08,10,08,16,19.30
2018,08,10,08,17,19.30
2018,08,10,08,18,19.40
2018,08,10,08,19,19.40
2018,08,10,08,20,19.50
2018,08,10,08,21,19.50
2018,08,10,08,22,19.60
2018,08,10,08,23,19.60
2018,08,10,08,24,19.70
2018,08,10,08,25,19.70
2018,08,10,08,26,19.80
2018,08,10,08,27,19.80
2018,08,10,08,28,19.80
2018,08,10,08,29,19.80
2018,08,10,08,30,19.90
2018,08,10,08,31,19.90
2018,08,10,08,32,20.00
2018,08,10,08,33,20.00
2018,08,10,08,34,20.10
2018,08,10,08,35,20.10
2018,08,10,08,36,20.10
2018,08,10,08,37,20.20
2018,08,10,08,38,20.20
2018,08,10,08,39,20.30
2018,08,10,08,40,20.30
2018,08,10,08,41,20.40
2018,08,10,08,42,20.40
2018,08,10,08,43,20.40
2018,08,10,08,44,20.40
2018,08,10,08,45,20.40
2018,08,10,08,46,20.40
2018,08,10,08,47,20.40
2018,08,10,08,48,20.40
2018,08,10,08,49,20.40
2018,08,10,08,50,20.40
2018,08,10,08,51,20.40
2018,08,10,08,52,20.40
2018,08,10,08,53,20.50
2018,08,10,08,54,20.50
2018,08,10,08,55,20.60
2018,08,10,08,56,20.60
2018,08,10,08,57,20.60
2018,08,10,08,58,20.70
2018,08,10,08,59,20.70
2018,08,10,09,00,20.70
2018,08,10,09,01,20.80
2018,08,10,09,02,20.80
2018,08,10,09,03,20.80
2018,08,10,09,04,20.90
2018,08,10,09,05,20.90
2018,08,10,09,06,20.90
2018,08,10,09,07,21.00
2018,08,10,09,08,21.10
2018,08,10,09,09,21.10
2018,08,10,09,10,21.20
2018,08,10,09,11,21.20
2018,08,10,09,12,21.20
2018,08,10,09,13,21.30
2018,08,10,09,14,21.30
2018,08,10,09,15,21.30
2018,08,10,09,16,21.30
2018,08,10,09,17,21.30
2018,08,10,09,18,21.30
2018,08,10,09,19,21.40
2018,08,10,09,20,21.40
2018,08,10,09,21,21.50
2018,08,10,09,22,21.50
2018,08,10,09,23,21.50
2018,08,10,09,24,21.60
2018,08,10,09,25,21.60
2018,08,10,09,26,21.60
2018,08,10,09,27,21.60
2018,08,10,09,28,21.60
2018,08,10,09,29,21.60
2018,08,10,09,30,21.70
2018,08,10,09,31,21.70
2018,08,10,09,32,21.70
2018,08,10,09,33,21.70
2018,08,10,09,34,21.70
2018,08,10,09,35,21.70
2018,08,10,09,36,21.70
2018,08,10,09,37,21.70
2018,08,10,09,38,21.80
2018,08,10,09,39,21.80
2018,08,10,09,40,21.80
2018,08,10,09,41,21.80
2018,08,10,09,42,21.90
2018,08,10,09,43,21.90
2018,08,10,09,44,21.90
2018,08,10,09,45,22.00
2018,08,10,09,46,22.10
2018,08,10,09,47,22.10
2018,08,10,09,48,22.20
2018,08,10,09,49,22.30
2018,08,10,09,50,22.30
2018,08,10,09,51,22.30
2018,08,10,09,52,22.20
2018,08,10,09,53,22.20
2018,08,10,09,54,22.20
2018,08,10,09,55,22.20
2018,08,10,09,56,22.20
2018,08,10,09,57,22.30
2018,08,10,09,58,22.30
2018,08,10,09,59,22.40
2018,08,10,10,00,22.50
2018,08,10,10,01,22.60
2018,08,10,10,02,22.70
2018,08,10,10,03,22.80
2018,08,10,10,04,22.80
2018,08,10,10,05,22.90
2018,08,10,10,06,23.00
2018,08,10,10,07,23.00
2018,08,10,10,08,23.10
2018,08,10,10,09,23.20
2018,08,10,10,10,23.20
2018,08,10,10,11,23.30
2018,08,10,10,12,23.30
2018,08,10,10,13,23.40
2018,08,10,10,14,23.40
2018,08,10,10,15,23.50
2018,08,10,10,16,23.50
2018,08,10,10,17,23.60
2018,08,10,10,18,23.60
2018,08,10,10,19,23.60
2018,08,10,10,20,23.70
2018,08,10,10,21,23.70
2018,08,10,10,22,23.80
2018,08,10,10,23,23.80
2018,08,10,10,24,23.90
2018,08,10,10,25,23.90
2018,08,10,10,26,24.00
2018,08,10,10,27,24.10
2018,08,10,10,28,24.10
2018,08,10,10,29,24.20
2018,08,10,10,30,24.30
2018,08,10,10,31,24.30
2018,08,10,10,32,24.30
2018,08,10,10,33,24.20
2018,08,10,10,34,24.20
2018,08,10,10,35,24.10
2018,08,10,10,36,24.10
2018,08,10,10,37,24.10
2018,08,10,10,38,24.00
2018,08,10,10,39,24.00
2018,08,10,10,40,23.90
2018,08,10,10,41,23.90
2018,08,10,10,42,23.90
2018,08,10,10,43,23.90
2018,08,10,10,44,23.90
2018,08,10,10,45,23.80
2018,08,10,10,46,23.80
2018,08,10,10,47,23.90
2018,08,10,10,48,23.90
2018,08,10,10,49,23.90
2018,08,10,10,50,23.90
2018,08,10,10,51,23.90
2018,08,10,10,52,24.00
2018,08,10,10,53,24.10
2018,08,10,10,54,24.20
2018,08,10,10,55,24.30
2018,08,10,10,56,24.40
2018,08,10,10,57,24.40
2018,08,10,10,58,24.40
2018,08,10,10,59,24.40
2018,08,10,11,00,24.40
2018,08,10,11,01,24.50
2018,08,10,11,02,24.50
2018,08,10,11,03,24.50
2018,08,10,11,04,24.60
2018,08,10,11,05,24.60
2018,08,10,11,06,24.60
2018,08,10,11,07,24.70
2018,08,10,11,08,24.70
2018,08,10,11,09,24.70
2018,08,10,11,10,24.80
2018,08,10,11,11,24.90
2018,08,10,11,12,25.00
2018,08,10,11,13,25.10
2018,08,10,11,14,25.30
2018,08,10,11,15,25.30
2018,08,10,11,16,25.30
2018,08,10,11,17,25.30
2018,08,10,11,18,25.30
2018,08,10,11,19,25.20
2018,08,10,11,20,25.10
2018,08,10,11,21,25.10
2018,08,10,11,22,25.10
2018,08,10,11,23,25.10
2018,08,10,11,24,25.10
2018,08,10,11,25,25.10
2018,08,10,11,26,25.00
2018,08,10,11,27,25.00
2018,08,10,11,28,25.00
2018,08,10,11,29,25.00
2018,08,10,11,30,25.00
2018,08,10,11,31,25.10
2018,08,10,11,32,25.10
2018,08,10,11,33,25.20
2018,08,10,11,34,25.30
2018,08,10,11,35,25.30
2018,08,10,11,36,25.30
2018,08,10,11,37,25.40
2018,08,10,11,38,25.40
2018,08,10,11,39,25.40
2018,08,10,11,40,25.40
2018,08,10,11,41,25.40
2018,08,10,11,42,25.30
2018,08,10,11,43,25.30
2018,08,10,11,44,25.30
2018,08,10,11,45,25.40
2018,08,10,11,46,25.50
2018,08,10,11,47,25.60
2018,08,10,11,48,25.70
2018,08,10,11,49,25.70
2018,08,10,11,50,25.80
2018,08,10,11,51,25.80
2018,08,10,11,52,25.90
2018,08,10,11,53,26.00
2018,08,10,11,54,26.10
2018,08,10,11,55,26.20
2018,08,10,11,56,26.40
2018,08,10,11,57,26.50
2018,08,10,11,58,26.50
2018,08,10,11,59,26.60
2018,08,10,12,00,26.70
2018,08,10,12,01,26.70
2018,08,10,12,02,26.60
2018,08,10,12,03,26.60
2018,08,10,12,04,26.70
2018,08,10,12,05,26.70
2018,08,10,12,06,26.80
2018,08,10,12,07,26.80
2018,08,10,12,08,26.90
2018,08,10,12,09,27.00
2018,08,10,12,10,27.10
2018,08,10,12,11,27.20
2018,08,10,12,12,27.20
2018,08,10,12,13,27.20
2018,08,10,12,14,27.30
2018,08,10,12,15,27.30
2018,08,10,12,16,27.40
2018,08,10,12,17,27.40
2018,08,10,12,18,27.50
2018,08,10,12,19,27.60
2018,08,10,12,20,27.70
2018,08,10,12,21,27.70
2018,08,10,12,22,27.80
2018,08,10,12,23,27.80
2018,08,10,12,24,27.80
2018,08,10,12,25,27.90
2018,08,10,12,26,28.00
2018,08,10,12,27,28.10
2018,08,10,12,28,28.20
2018,08,10,12,29,28.20
2018,08,10,12,30,28.20
2018,08,10,12,31,28.20
2018,08,10,12,32,28.10
2018,08,10,12,33,28.10
2018,08,10,12,34,28.10
2018,08,10,12,35,28.20
2018,08,10,12,36,28.20
2018,08,10,12,37,28.20
2018,08,10,12,38,28.30
2018,08,10,12,39,28.30
2018,08,10,12,40,28.30
2018,08,10,12,41,28.30
2018,08,10,12,42,28.30
2018,08,10,12,43,28.20
2018,08,10,12,44,28.30
2018,08,10,12,45,28.30
2018,08,10,12,46,28.20
2018,08,10,12,47,28.20
2018,08,10,12,48,28.20
2018,08,10,12,49,28.20
2018,08,10,12,50,28.30
2018,08,10,12,51,28.30
2018,08,10,12,52,28.40
2018,08,10,12,53,28.60
2018,08,10,12,54,28.70
2018,08,10,12,55,28.90
2018,08,10,12,56,29.00
2018,08,10,12,57,29.10
2018,08,10,12,58,29.20
2018,08,10,12,59,29.30
2018,08,10,13,00,29.30
2018,08,10,13,01,29.50
2018,08,10,13,02,29.60
2018,08,10,13,03,29.70
2018,08,10,13,04,29.80
2018,08,10,13,05,29.80
2018,08,10,13,06,29.80
2018,08,10,13,07,29.80
2018,08,10,13,08,29.90
2018,08,10,13,09,30.00
2018,08,10,13,10,30.00
2018,08,10,13,11,30.10
2018,08,10,13,12,30.00
2018,08,10,13,13,29.90
2018,08,10,13,14,29.80
2018,08,10,13,15,29.70
2018,08,10,13,16,29.60
2018,08,10,13,17,29.60
2018,08,10,13,18,29.60
2018,08,10,13,19,29.60
2018,08,10,13,20,29.70
2018,08,10,13,21,29.70
2018,08,10,13,22,29.70
2018,08,10,13,23,29.60
2018,08,10,13,24,29.60
2018,08,10,13,25,29.60
2018,08,10,13,26,29.60
2018,08,10,13,27,29.60
2018,08,10,13,28,29.70
2018,08,10,13,29,29.80
2018,08,10,13,30,30.00
2018,08,10,13,31,30.10
2018,08,10,13,32,30.20
2018,08,10,13,33,30.30
2018,08,10,13,34,30.40
2018,08,10,13,35,30.40
2018,08,10,13,36,30.40
2018,08,10,13,37,30.30
2018,08,10,13,38,30.30
2018,08,10,13,39,30.20
2018,08,10,13,40,30.20
2018,08,10,13,41,30.10
2018,08,10,13,42,30.10
2018,08,10,13,43,30.10
2018,08,10,13,44,30.10
2018,08,10,13,45,30.10
2018,08,10,13,46,30.20
2018,08,10,13,47,30.20
2018,08,10,13,48,30.30
2018,08,10,13,49,30.40
2018,08,10,13,50,30.40
2018,08,10,13,51,30.40
2018,08,10,13,52,30.40
2018,08,10,13,53,30.30
2018,08,10,13,54,30.30
2018,08,10,13,55,30.40
2018,08,10,13,56,30.30
2018,08,10,13,57,30.30
2018,08,10,13,58,30.20
2018,08,10,13,59,30.10
2018,08,10,14,00,30.10
2018,08,10,14,01,30.10
2018,08,10,14,02,30.10
2018,08,10,14,03,30.10
2018,08,10,14,04,30.20
2018,08,10,14,05,30.20
2018,08,10,14,06,30.20
2018,08,10,14,07,30.30
2018,08,10,14,08,30.30
2018,08,10,14,09,30.30
2018,08,10,14,10,30.30
2018,08,10,14,11,30.30
2018,08,10,14,12,30.40
2018,08,10,14,13,30.60
2018,08,10,14,14,30.70
2018,08,10,14,15,30.80
2018,08,10,14,16,30.90
2018,08,10,14,17,31.10
2018,08,10,14,18,31.20
2018,08,10,14,19,31.20
2018,08,10,14,20,31.30
2018,08,10,14,21,31.20
2018,08,10,14,22,31.20
2018,08,10,14,23,31.10
2018,08,10,14,24,31.10
2018,08,10,14,25,31.00
2018,08,10,14,26,31.10
2018,08,10,14,27,31.10
2018,08,10,14,28,31.10
2018,08,10,14,29,31.10
2018,08,10,14,30,31.00
2018,08,10,14,31,30.80
2018,08,10,14,32,30.80
2018,08,10,14,33,30.70
2018,08,10,14,34,30.60
2018,08,10,14,35,30.60
2018,08,10,14,36,30.50
2018,08,10,14,37,30.60
2018,08,10,14,38,30.60
2018,08,10,14,39,30.60
2018,08,10,14,40,30.60
2018,08,10,14,41,30.60
2018,08,10,14,42,30.50
2018,08,10,14,43,30.50
2018,08,10,14,44,30.50
2018,08,10,14,45,30.60
2018,08,10,14,46,30.60
2018,08,10,14,47,30.60
2018,08,10,14,48,30.60
2018,08,10,14,49,30.60
2018,08,10,14,50,30.50
2018,08,10,14,51,30.60
2018,08,10,14,52,30.60
2018,08,10,14,53,30.60
2018,08,10,14,54,30.60
2018,08,10,14,55,30.50
2018,08,10,14,56,30.40
2018,08,10,14,57,30.40
2018,08,10,14,58,30.50
2018,08,10,14,59,30.60
2018,08,10,15,00,30.70
2018,08,10,15,01,30.90
2018,08,10,15,02,31.20
2018,08,10,15,03,31.30
2018,08,10,15,04,31.40
2018,08,10,15,05,31.60
2018,08,10,15,06,31.70
2018,08,10,15,07,31.80
2018,08,10,15,08,31.90
2018,08,10,15,09,32.00
2018,08,10,15,10,32.10
2018,08,10,15,11,32.00
2018,08,10,15,12,32.00
2018,08,10,15,13,31.90
2018,08,10,15,14,31.90
2018,08,10,15,15,32.00
2018,08,10,15,16,32.10
2018,08,10,15,17,32.10
2018,08,10,15,18,32.10
2018,08,10,15,19,32.00
2018,08,10,15,20,31.90
2018,08,10,15,21,31.90
2018,08,10,15,22,32.00
2018,08,10,15,23,32.10
2018,08,10,15,24,32.20
2018,08,10,15,25,32.20
2018,08,10,15,26,32.30
2018,08,10,15,27,32.30
2018,08,10,15,28,32.40
2018,08,10,15,29,32.50
2018,08,10,15,30,32.60
2018,08,10,15,31,32.70
2018,08,10,15,32,32.70
2018,08,10,15,33,32.60
2018,08,10,15,34,32.50
2018,08,10,15,35,32.40
2018,08,10,15,36,32.30
2018,08,10,15,37,32.20
2018,08,10,15,38,32.10
2018,08,10,15,39,32.00
2018,08,10,15,40,31.80
2018,08,10,15,41,31.60
2018,08,10,15,42,31.60
2018,08,10,15,43,31.60
2018,08,10,15,44,31.50
2018,08,10,15,45,31.50
2018,08,10,15,46,31.60
2018,08,10,15,47,31.60
2018,08,10,15,48,31.60
2018,08,10,15,49,31.50
2018,08,10,15,50,31.40
2018,08,10,15,51,31.50
2018,08,10,15,52,31.40
2018,08,10,15,53,31.40
2018,08,10,15,54,31.40
2018,08,10,15,55,31.40
2018,08,10,15,56,31.50
2018,08,10,15,57,31.50
2018,08,10,15,58,31.60
2018,08,10,15,59,31.60
2018,08,10,16,00,31.70
2018,08,10,16,01,31.70
2018,08,10,16,02,31.70
2018,08,10,16,03,31.80
2018,08,10,16,04,31.90
2018,08,10,16,05,31.90
2018,08,10,16,06,31.80
2018,08,10,16,07,31.80
2018,08,10,16,08,31.80
2018,08,10,16,09,31.80
2018,08,10,16,10,31.80
2018,08,10,16,11,31.80
2018,08,10,16,12,31.80
2018,08,10,16,13,31.90
2018,08,10,16,14,31.90
2018,08,10,16,15,31.90
2018,08,10,16,16,32.00
2018,08,10,16,17,32.10
2018,08,10,16,18,32.10
2018,08,10,16,19,32.10
2018,08,10,16,20,32.00
2018,08,10,16,21,31.90
2018,08,10,16,22,31.70
2018,08,10,16,23,31.60
2018,08,10,16,24,31.60
2018,08,10,16,25,31.50
2018,08,10,16,26,31.40
2018,08,10,16,27,31.40
2018,08,10,16,28,31.40
2018,08,10,16,29,31.40
2018,08,10,16,30,31.40
2018,08,10,16,31,31.40
2018,08,10,16,32,31.30
2018,08,10,16,33,31.20
2018,08,10,16,34,31.10
2018,08,10,16,35,31.10
2018,08,10,16,36,31.10
2018,08,10,16,37,31.10
2018,08,10,16,38,31.00
2018,08,10,16,39,30.90
2018,08,10,16,40,30.90
2018,08,10,16,41,30.90
2018,08,10,16,42,30.90
2018,08,10,16,43,30.90
2018,08,10,16,44,30.80
2018,08,10,16,45,30.70
2018,08,10,16,46,30.70
2018,08,10,16,47,30.60
2018,08,10,16,48,30.60
2018,08,10,16,49,30.50
2018,08,10,16,50,30.40
2018,08,10,16,51,30.30
2018,08,10,16,52,30.30
2018,08,10,16,53,30.10
2018,08,10,16,54,30.10
2018,08,10,16,55,30.00
2018,08,10,16,56,30.00
2018,08,10,16,57,29.90
2018,08,10,16,58,29.80
2018,08,10,16,59,29.80
2018,08,10,17,00,29.80
2018,08,10,17,01,29.80
2018,08,10,17,02,29.70
2018,08,10,17,03,29.70
2018,08,10,17,04,29.70
2018,08,10,17,05,29.80
2018,08,10,17,06,29.80
2018,08,10,17,07,29.90
2018,08,10,17,08,29.90
2018,08,10,17,09,29.90
2018,08,10,17,10,29.90
2018,08,10,17,11,29.80
2018,08,10,17,12,29.70
2018,08,10,17,13,29.50
2018,08,10,17,14,29.30
2018,08,10,17,15,29.20
2018,08,10,17,16,29.10
2018,08,10,17,17,29.00
2018,08,10,17,18,28.90
2018,08,10,17,19,28.80